Find Starlink 38369

NORAD ID: 100511 Int'l Des: 2026-197 Owner: SPXS Country: US Constellation: starlink operational

Current View

Loading 3D Globe...

About Starlink 38369

Starlink 38369 (NORAD 100511) is a starlink constellation satellite launched Aug 25, 2026 by SPXS of US. with a mass of 575.00 kg.

Upcoming Passes

Passes for default location (London). Set your location on the main map for personalized predictions.

Altitude History

Loading altitude history...

Two-Line Element Set

1 A0511U 26197K 26255.09306197 .00260294 00000-0 12254-2 0 9996
2 A0511 69.9984 145.5486 0003184 274.1603 85.9235 15.82250516 2667
Epoch: Sep 12, 2026 • Age: 16 hours

Current Status

Altitude 333.7 km
Apogee / Perigee N/A
Velocity 7.71 km/s
Sub-Earth Point 55.52°N, 31.54°E
Launch Date Aug 25, 2026
Age 18 days
Type internet

Technical Details

Classification Payload
Mass 575.00 kg
Dry Mass 530.00 kg
Total Mass 575.00 kg
Length 0.30 m
Diameter 4.10 m
Span 29.00 m
Shape Box + pan
Manufacturer SPXS
Bus Type Starlink V2MO
Phase Status In Orbit
Owner/State SPXS/US

Most Searched